Location: Biltmore Gardens
(41.6070°N, 83.4666°W)
Time: 14:54:16
(UTC+00:00)

Cosmos 2082 Rocket - Pass Details

Date: 14 July 2020
Orbit: 834 x 853 km, 71.0° (Epoch: 12 August)

Event Time Altitude Azimuth Distance (km) Brightness Sun altitude
Exits shadow 09:10:10 11° 252° (WSW) 2,443 4.0 -10.3°
Maximum altitude 09:14:43 26° 306° (NW) 1,634 3.6 -9.6°
Drops below altitude 10° 09:19:25 10° 2° (N) 2,487 5.3 -9.0°
Sets 09:22:19 0° 15° (NNE) 3,424 6.4 -8.5°
